Simultaneous Nadir Overpasses (SNOs) Predictions

Prediction of SNOs between GOES-17 and TERRA Satellite Orbit:

Table of predicted SNOs for the next 14.0 days since TLE Epoch: 5/6/2023
Index Date Time (GOES-17) GOES-17 Lat,Lon TERRA Lat,Lon Distance(km) Time Diff (sec)
1 05/08/2023 04:55:54 0.00,-104.70 0.44,-102.57 242.67 80
2 05/08/2023 17:16:07 0.00,-104.74 0.59,-107.48 311.61 80
3 05/10/2023 17:02:32 0.00,-104.73 -0.22,-103.55 133.49 80
4 05/11/2023 05:22:53 -0.00,-104.69 -0.79,-108.51 432.97 80
5 05/13/2023 05:03:57 -0.00,-104.69 -0.01,-104.57 12.69 80
6 05/15/2023 04:47:43 -0.00,-104.68 0.86,-100.65 458.29 80
7 05/15/2023 17:07:54 0.00,-104.72 0.20,-105.56 95.88 80
8 05/17/2023 16:54:18 0.01,-104.72 -0.63,-101.63 350.85 80
9 05/18/2023 05:14:39 -0.01,-104.68 -0.42,-106.57 214.93 80
